Temp
16 16 16 16 16 16 16 15 15 15 14 14 14 14 13 13 14 14 14 14 14 13 13 13 13 13 13 12 12 12 12 12 12 12 12 12 12 13 12 12 12 12 12
15 15 15 15 15 16 15 15 14 14 13 13 13 13 13 13 13 13 14 14 13 12 12 12 12 12 12 12 12 11 11 12 11 11 11 11 11 11 12 12 11 11 11
15 15 15 15 15 15 15 14 14 14 13 13 13 13 13 14 14 13 13 13 13 12 12 12 11 11 11 11 11 11 11 10 10 11 11 11 10 10 10 11 11 11 11
15 15 15 14 14 14 14 14 14 13 13 13 13 13 13 14 14 13 13 13 13 12 12 12 11 11 11 11 11 11 11 11 10 10 10 10 10 10 10 10 10 11 11
15 15 15 14 14 13 13 13 13 13 13 13 13 13 13 13 13 13 13 13 12 12 12 12 11 11 11 11 10 11 11 11 10 10 10 10 9 9 10 10 9 9 10
14 15 14 14 13 13 13 13 13 13 13 13 13 12 12 12 12 13 13 12 12 11 11 11 11 11 11 10 10 10 11 11 11 10 10 10 9 9 9 10 10 9 10
14 13 13 13 13 13 13 13 13 13 13 13 12 12 12 12 12 13 13 12 12 11 11 11 11 10 10 10 10 10 10 10 10 10 10 10 10 9 9 9 9 9 9
14 14 13 13 13 13 13 12 12 12 12 12 12 12 12 12 12 13 13 12 11 11 11 11 10 10 9 9 9 9 9 9 9 10 10 9 9 9 9 9 8 8 9
13 14 13 13 13 13 13 13 12 13 12 12 11 11 12 11 11 12 11 11 11 11 10 10 10 10 9 8 8 8 8 8 8 9 9 9 9 9 9 9 8 8 8
14 14 13 14 13 13 14 14 14 13 12 12 12 11 11 10 10 10 11 11 10 10 10 10 9 9 8 7 7 8 8 8 8 8 8 8 8 8 8 7 9 8 8
14 14 14 14 14 14 14 14 13 13 12 12 12 11 11 10 9 9 10 10 10 10 9 9 9 8 8 7 7 7 7 7 8 8 8 8 8 8 7 8 8 8 8
13 14 14 14 14 14 13 13 12 12 12 11 11 10 9 9 9 9 9 9 9 9 8 8 8 8 7 7 7 7 7 7 7 8 8 8 8 8 9 9 9 8 8
14 14 14 14 13 13 13 12 12 11 11 11 10 10 8 8 8 8 8 9 9 9 8 8 8 7 7 6 6 6 6 6 6 5 5 6 7 7 8 8 8 8 8
15 13 13 13 13 12 11 11 11 11 10 9 8 8 8 8 8 8 9 8 8 8 8 7 7 7 6 6 5 5 5 5 4 5 6 7 7 6 6 7 7 6 7
12 12 12 12 12 11 10 10 10 10 10 8 7 7 7 8 8 8 8 8 8 8 8 7 6 6 6 5 4 4 4 4 4 4 5 6 4 3 4 5 5 6 6
12 12 11 11 10 10 9 9 9 9 9 7 6 6 6 7 7 7 8 7 7 7 6 6 6 5 5 4 4 4 3 3 3 3 4 4 2 2 3 4 4 5 5
13 12 11 11 9 9 8 7 7 7 7 6 6 6 6 6 6 6 7 7 7 7 5 5 4 4 4 3 3 3 3 3 3 3 3 3 1 1 2 3 4 3 3
11 10 11 10 9 7 7 6 6 6 6 5 5 5 6 6 6 6 6 6 6 6 5 4 4 3 2 3 2 3 2 3 3 3 3 2 2 1 1 1 2 3 3
10 10 9 8 7 6 5 5 4 4 5 5 5 5 6 5 5 5 5 5 5 5 4 4 3 2 1 2 2 2 2 2 2 2 2 2 2 2 1 1 1 1 1
9 8 7 6 5 4 3 3 3 3 3 4 4 4 4 5 5 5 4 4 4 4 3 3 1 0 0 2 2 1 1 1 1 1 1 1 1 2 1 1 1 1 1
7 6 5 4 3 2 2 1 1 2 2 3 3 3 3 4 4 4 3 3 3 3 2 1 0 -1 -1 -0 1 1 1 0 1 1 1 -0 0 1 1 1 1 1 1
6 5 4 3 2 2 2 1 2 2 2 2 3 3 2 3 3 3 4 4 3 3 2 2 0 -1 -0 -0 -0 -0 0 -0 -1 0 -0 -0 -0 0 0 -0 -0 -0 -0
5 3 2 2 2 1 1 1 2 1 1 1 0 1 2 2 2 2 2 2 2 2 2 2 1 0 -0 -1 -1 -1 -0 -1 -1 -1 -1 -1 -1 -1 -1 -1 -0 -1 -1
3 2 1 1 1 1 1 1 1 0 0 1 1 0 -0 1 1 2 2 2 2 1 1 1 -0 -1 -1 -1 -1 -2 -1 -2 -1 -1 -1 -1 -1 -2 -1 -1 -1 -1 -1
2 1 1 1 1 0 1 1 1 1 0 0 0 1 1 1 1 1 1 1 1 0 0 0 -0 -1 -1 -1 -2 -1 -1 -2 -2 -2 -2 -2 -2 -1 -1 -1 -2 -2 -2
-0 -0 -0 -0 -0 -0 0 1 1 1 1 0 1 -0 0 0 0 -0 0 0 0 0 -0 -1 -1 -1 -1 -2 -2 -2 -2 -2 -2 -2 -2 -2 -2 -2 -2 -2 -2 -2 -2
Height
1571 1571 1572 1573 1574 1575 1575 1576 1576 1576 1577 1578 1578 1577 1578 1577 1577 1576 1575 1574 1573 1572 1571 1570 1568 1566 1565 1564 1563 1562 1561 1560 1560 1559 1558 1556 1555 1554 1553 1553 1552 1552 1551
1569 1569 1570 1571 1573 1573 1573 1574 1575 1576 1576 1576 1577 1577 1576 1576 1575 1575 1574 1573 1571 1570 1569 1568 1567 1565 1564 1563 1562 1560 1559 1558 1557 1557 1557 1556 1554 1553 1552 1552 1551 1551 1551
1567 1568 1569 1570 1571 1572 1572 1573 1573 1573 1574 1574 1574 1575 1574 1574 1573 1573 1571 1570 1569 1568 1567 1565 1564 1563 1562 1561 1560 1559 1557 1556 1555 1555 1555 1554 1554 1552 1551 1551 1550 1549 1550
1565 1566 1567 1568 1570 1571 1570 1571 1572 1572 1571 1572 1572 1572 1572 1571 1570 1569 1568 1567 1565 1564 1564 1563 1561 1560 1559 1558 1557 1556 1555 1554 1553 1552 1552 1551 1551 1551 1550 1550 1549 1548 1548
1562 1564 1565 1567 1568 1570 1570 1569 1569 1570 1570 1570 1569 1569 1568 1567 1566 1565 1564 1563 1562 1560 1560 1559 1558 1557 1555 1554 1553 1552 1552 1551 1550 1549 1548 1548 1547 1547 1547 1547 1547 1547 1546
1561 1561 1563 1565 1567 1567 1568 1568 1567 1567 1567 1567 1565 1564 1563 1563 1562 1560 1559 1559 1557 1556 1556 1555 1555 1553 1552 1551 1550 1549 1548 1548 1546 1545 1545 1545 1544 1544 1544 1544 1545 1545 1545
1560 1561 1561 1563 1564 1564 1565 1565 1564 1564 1564 1563 1562 1560 1559 1559 1557 1556 1554 1553 1553 1553 1552 1552 1551 1549 1549 1547 1546 1546 1545 1545 1544 1542 1542 1541 1541 1540 1540 1539 1540 1543 1543
1557 1558 1559 1560 1559 1560 1561 1561 1560 1560 1559 1560 1558 1556 1554 1555 1553 1550 1549 1550 1550 1549 1549 1548 1547 1546 1546 1545 1544 1543 1541 1541 1540 1539 1538 1538 1537 1537 1537 1537 1537 1538 1539
1553 1554 1555 1557 1556 1556 1556 1556 1555 1554 1553 1554 1553 1554 1551 1549 1550 1549 1548 1548 1548 1546 1545 1544 1544 1543 1543 1541 1540 1539 1537 1536 1536 1535 1534 1534 1533 1532 1532 1533 1534 1534 1535
1549 1551 1550 1552 1552 1551 1551 1550 1549 1548 1548 1547 1547 1547 1547 1547 1547 1546 1545 1545 1545 1543 1542 1540 1540 1540 1539 1538 1537 1535 1534 1533 1532 1531 1530 1529 1529 1528 1528 1528 1529 1529 1530
1544 1546 1546 1547 1547 1546 1545 1544 1544 1542 1542 1542 1541 1541 1541 1541 1541 1542 1540 1542 1542 1541 1539 1537 1537 1537 1536 1535 1534 1532 1531 1529 1527 1527 1527 1525 1524 1524 1523 1522 1523 1524 1527
1540 1540 1540 1541 1541 1540 1539 1538 1538 1537 1536 1536 1536 1536 1535 1535 1535 1536 1536 1537 1538 1537 1535 1534 1533 1533 1533 1532 1531 1530 1528 1526 1523 1521 1521 1520 1518 1518 1517 1518 1518 1520 1522
1535 1536 1535 1536 1535 1535 1534 1533 1532 1531 1530 1529 1529 1529 1530 1529 1530 1530 1530 1532 1532 1533 1531 1529 1529 1529 1529 1528 1528 1526 1525 1522 1520 1518 1516 1515 1513 1512 1511 1512 1513 1514 1516
1529 1532 1531 1529 1529 1530 1529 1527 1526 1525 1524 1523 1523 1523 1524 1524 1525 1525 1525 1526 1525 1526 1525 1525 1526 1526 1525 1525 1525 1523 1522 1519 1516 1514 1511 1510 1510 1509 1509 1508 1508 1510 1511
1526 1525 1525 1524 1523 1524 1523 1521 1520 1519 1518 1518 1518 1518 1518 1519 1520 1520 1519 1519 1520 1520 1521 1520 1522 1521 1523 1522 1521 1519 1517 1516 1514 1511 1509 1508 1508 1509 1508 1507 1507 1510 1510
1520 1519 1519 1517 1517 1516 1516 1515 1514 1512 1511 1512 1513 1513 1514 1515 1515 1515 1516 1515 1516 1518 1519 1518 1517 1517 1518 1519 1517 1515 1515 1513 1512 1510 1508 1507 1507 1508 1508 1508 1508 1509 1510
1513 1514 1512 1512 1511 1511 1509 1509 1509 1507 1506 1507 1508 1508 1509 1510 1510 1512 1512 1512 1510 1510 1512 1514 1513 1514 1515 1515 1512 1511 1511 1510 1510 1509 1507 1506 1506 1506 1507 1507 1508 1509 1510
1506 1505 1505 1504 1504 1505 1504 1504 1504 1502 1503 1503 1502 1502 1502 1504 1504 1506 1506 1507 1506 1506 1508 1508 1509 1511 1510 1511 1509 1507 1508 1508 1508 1507 1506 1505 1504 1504 1504 1505 1506 1507 1508
1502 1501 1499 1499 1498 1498 1499 1498 1498 1498 1498 1497 1497 1497 1497 1499 1500 1501 1502 1502 1503 1503 1502 1503 1505 1508 1504 1506 1506 1505 1505 1504 1505 1505 1503 1502 1501 1501 1501 1502 1503 1504 1504
1496 1495 1494 1493 1493 1493 1494 1493 1492 1495 1493 1494 1492 1493 1494 1494 1496 1497 1497 1498 1500 1499 1500 1498 1501 1504 1501 1501 1502 1503 1503 1502 1502 1501 1499 1499 1498 1497 1497 1498 1499 1499 1500
1491 1490 1489 1488 1488 1488 1489 1489 1487 1489 1491 1489 1489 1490 1491 1490 1492 1491 1494 1494 1496 1496 1498 1497 1496 1500 1497 1498 1499 1499 1500 1499 1499 1498 1496 1496 1495 1493 1493 1493 1494 1495 1495
1485 1485 1485 1485 1485 1484 1484 1484 1483 1483 1487 1486 1484 1487 1488 1487 1487 1490 1489 1490 1492 1491 1495 1493 1495 1495 1496 1495 1496 1497 1496 1497 1497 1495 1494 1493 1493 1491 1490 1490 1490 1491 1491
1480 1481 1481 1481 1481 1480 1480 1480 1480 1480 1482 1481 1484 1484 1484 1485 1486 1487 1487 1488 1488 1489 1491 1491 1492 1492 1493 1493 1493 1493 1493 1493 1493 1492 1492 1490 1490 1489 1488 1488 1489 1489 1489
1477 1477 1477 1478 1477 1478 1478 1477 1477 1479 1480 1479 1480 1484 1485 1484 1484 1484 1485 1485 1486 1487 1488 1486 1489 1490 1490 1489 1490 1490 1490 1490 1490 1490 1490 1489 1489 1488 1486 1486 1487 1487 1487
1472 1473 1474 1475 1475 1476 1475 1475 1476 1477 1478 1479 1479 1481 1485 1483 1483 1482 1482 1482 1484 1485 1485 1484 1485 1487 1487 1486 1486 1487 1487 1488 1488 1488 1488 1486 1487 1486 1485 1484 1485 1486 1486
1468 1469 1471 1472 1472 1473 1473 1474 1474 1475 1476 1477 1478 1480 1481 1481 1480 1480 1479 1480 1481 1482 1482 1483 1483 1484 1483 1483 1484 1484 1486 1486 1486 1486 1486 1486 1485 1484 1483 1483 1484 1484 1484
Wind_Speed
9 9 7 5 4 4 3 4 3 4 6 7 8 9 9 11 12 12 13 13 14 14 13 14 15 15 14 13 14 14 14 13 11 11 10 10 10 9 8 7 7 7 7
8 9 8 6 5 5 4 5 6 6 6 8 8 10 11 11 14 15 16 17 18 17 17 17 16 15 15 15 15 17 18 15 14 12 11 10 8 7 7 7 7 7 7
9 9 9 7 6 7 7 8 8 9 11 11 10 8 11 13 15 17 17 17 16 17 17 18 18 18 16 16 17 17 17 17 17 15 13 12 10 9 8 6 7 8 9
12 10 9 9 8 7 7 7 9 11 10 10 12 12 15 16 17 19 20 17 18 21 19 19 17 18 18 16 16 17 17 17 16 17 16 15 12 11 9 8 6 7 8
12 12 10 9 9 8 9 9 9 10 12 14 16 17 19 20 19 19 19 20 20 17 12 12 16 18 15 13 12 14 15 17 16 15 17 17 16 14 11 9 7 6 8
10 12 11 10 9 11 12 13 15 14 14 17 18 20 20 21 21 22 21 18 11 14 13 15 18 18 15 14 13 14 14 15 17 17 16 15 18 18 17 13 10 7 7
11 12 12 11 13 15 15 16 16 16 17 17 21 22 22 22 25 22 13 15 15 15 16 17 17 13 15 14 14 14 13 13 13 15 17 14 15 16 21 24 17 11 14
16 14 15 16 17 16 17 17 18 20 21 21 23 24 27 23 20 8 12 13 15 15 15 15 16 13 14 15 16 15 15 15 16 17 18 19 18 17 14 15 20 18 15
21 19 18 17 18 18 20 21 22 23 23 23 23 21 12 6 6 6 6 11 12 15 13 12 16 19 21 18 16 14 14 14 14 14 16 18 18 17 18 17 15 22 19
18 19 18 19 21 20 20 20 22 22 22 23 20 21 21 20 16 10 11 12 12 15 11 15 16 21 25 21 17 15 13 13 15 15 15 14 15 13 12 15 16 18 25
20 18 17 17 19 19 20 22 22 22 21 21 20 18 19 19 20 21 20 20 17 18 16 15 16 19 22 18 15 15 13 15 15 16 15 15 15 15 14 19 18 14 24
19 17 16 18 19 21 23 23 22 22 22 22 22 21 20 20 20 20 22 22 19 17 17 16 18 20 20 19 18 17 17 18 17 14 13 14 17 19 19 16 18 19 16
18 18 17 19 21 22 23 23 23 22 22 23 23 23 25 26 19 20 21 20 20 20 18 16 18 17 19 18 17 17 20 20 16 9 8 9 12 14 14 14 15 16 16
18 19 19 21 22 23 23 22 23 22 21 21 19 17 17 18 20 20 22 23 21 22 16 17 18 19 19 17 17 18 20 17 13 11 10 9 10 10 8 4 3 4 8
17 17 19 21 22 23 23 23 23 21 21 19 15 14 14 16 17 19 22 23 22 13 17 19 19 19 19 18 18 19 17 12 11 10 10 8 6 7 7 6 6 2 3
17 19 21 23 23 23 23 23 23 21 19 17 15 14 15 15 16 16 19 18 18 18 16 16 18 18 17 18 19 17 13 9 10 10 11 7 3 4 4 4 3 3 5
21 23 24 26 24 24 22 22 21 20 18 18 18 18 18 18 19 20 21 23 23 18 17 20 18 18 19 18 18 12 10 9 8 8 9 8 1 2 3 6 6 4 4
24 25 27 28 26 24 22 22 22 21 19 20 19 18 19 18 20 21 17 18 18 16 16 18 19 18 18 18 12 10 9 9 8 8 8 7 5 5 7 8 8 10 10
24 25 25 24 22 20 20 20 21 21 20 19 18 17 16 16 16 17 16 16 15 14 13 15 15 16 15 9 9 9 10 9 9 9 9 9 7 7 8 9 11 14 16
22 22 21 20 18 18 19 20 20 21 19 18 16 16 15 15 16 15 14 13 13 13 14 13 14 14 11 9 9 8 8 9 10 10 11 10 9 9 9 10 10 10 11
21 20 19 19 17 17 18 19 19 20 20 18 17 17 16 16 16 13 12 11 11 11 10 11 10 11 8 9 6 8 8 10 10 9 9 10 9 9 10 10 11 12 12
20 18 16 16 16 16 16 16 15 17 18 16 16 16 15 15 13 12 11 11 11 10 12 10 10 10 9 8 8 9 9 10 8 7 6 8 6 5 5 5 6 6 7
17 15 14 14 14 13 13 13 14 14 13 11 11 12 12 10 8 8 8 7 7 8 9 8 8 8 9 9 10 11 10 9 7 6 4 3 1 2 3 3 3 4 5
15 14 13 13 12 12 13 12 10 11 10 9 9 9 9 9 9 8 7 7 7 7 8 6 8 9 10 10 10 9 7 7 5 4 2 3 1 1 4 4 4 5 4
15 13 12 13 12 13 10 8 8 9 9 8 8 9 9 8 7 6 7 6 6 7 7 8 8 9 10 9 9 8 7 5 5 4 2 1 1 4 3 1 1 1 2
14 12 13 13 14 10 9 8 7 7 8 9 9 10 9 8 7 6 6 6 6 6 6 7 7 7 7 7 8 7 6 5 4 4 1 2 4 4 2 1 2 7 7
Wind_Direction
216 225 215 216 235 219 256 290 306 319 313 317 320 326 321 324 327 328 325 323 324 321 321 317 312 312 310 309 315 319 324 328 335 346 360 351 339 327 318 311 305 307 311
210 210 213 226 243 251 254 257 265 268 281 283 288 294 308 319 322 324 326 324 323 320 317 319 319 306 299 299 300 301 304 308 317 324 334 347 346 335 319 307 301 305 308
220 206 209 209 222 238 242 250 253 258 265 274 279 293 301 302 302 306 303 307 304 304 301 308 311 316 304 291 288 289 288 288 298 304 309 317 324 331 332 316 301 303 301
226 221 212 225 237 244 250 259 266 267 273 288 292 286 283 282 284 283 289 289 285 291 293 295 304 306 308 296 289 285 283 285 282 292 295 293 299 303 312 319 316 297 300
224 222 221 221 231 248 263 268 271 275 283 283 284 286 284 280 277 281 283 288 289 289 287 286 291 301 300 293 291 283 276 274 281 285 281 282 290 293 288 291 297 301 310
232 225 226 230 234 246 252 258 269 270 279 286 287 286 285 285 287 286 286 284 280 280 276 286 296 298 295 296 288 285 286 277 270 273 279 274 272 281 287 289 285 285 298
230 233 241 228 240 247 256 262 268 274 277 282 289 290 290 295 293 299 283 264 269 258 274 295 296 295 296 291 290 291 293 291 286 281 277 280 270 269 268 272 279 270 285
218 227 235 239 242 248 256 263 266 273 276 280 282 286 292 293 294 277 256 250 255 263 286 292 290 303 300 301 297 291 288 286 281 276 275 279 278 274 272 264 247 250 264
234 236 238 249 254 260 263 264 268 269 272 271 268 269 284 258 279 289 244 245 266 285 298 302 306 317 311 309 304 294 290 285 279 275 279 281 279 274 267 270 266 253 242
245 251 252 259 262 264 269 273 275 277 275 277 272 266 258 259 270 275 252 266 284 281 286 292 297 312 308 308 302 298 300 293 286 284 285 284 279 276 279 266 271 255 236
248 253 253 258 265 272 275 277 278 279 278 277 273 271 264 256 254 254 263 264 261 269 264 276 284 297 300 304 301 298 305 300 290 286 285 281 277 270 263 255 258 259 238
250 251 260 270 277 279 280 280 277 275 275 275 272 267 263 256 259 253 256 256 262 249 256 266 280 294 295 298 299 302 308 310 309 303 297 285 273 271 269 270 265 260 249
252 262 275 281 284 283 281 279 276 275 274 273 269 262 255 259 255 261 261 266 258 257 254 261 268 277 286 292 300 305 313 315 311 356 345 294 289 288 288 274 266 263 254
258 272 280 285 286 283 280 278 276 277 276 274 272 261 264 259 250 250 263 257 257 262 239 249 256 274 281 283 294 305 312 316 309 308 304 307 315 323 334 336 295 284 264
268 277 282 285 285 284 282 279 277 275 273 271 270 264 260 257 251 253 257 256 239 245 250 241 250 260 269 276 291 306 309 312 314 320 315 316 338 54 80 116 163 329 201
283 290 286 288 284 281 280 277 276 274 269 262 255 255 257 252 243 242 256 258 257 251 245 245 247 255 262 276 293 300 303 301 318 329 327 319 11 92 147 162 220 267 251
285 285 292 290 284 280 276 272 270 266 264 259 253 251 246 248 252 253 252 256 256 251 235 237 247 255 267 278 289 288 286 289 300 312 319 323 291 160 181 231 238 234 190
282 284 287 286 282 279 274 268 265 264 255 252 253 251 253 252 252 252 249 245 246 246 239 239 250 255 266 277 272 268 272 283 293 301 303 307 299 256 236 240 247 249 249
283 285 285 281 280 278 274 268 263 260 260 255 251 251 250 247 247 251 250 251 250 249 242 244 249 253 265 268 264 269 268 274 280 284 286 280 273 271 265 256 248 247 250
285 285 283 280 281 279 276 268 261 255 256 253 253 252 250 247 247 250 248 250 254 250 248 245 243 250 261 261 248 252 260 270 275 284 289 287 287 276 269 266 264 261 258
283 283 281 283 280 278 278 273 259 249 251 244 243 243 243 243 247 242 241 244 249 252 248 233 232 248 256 262 254 265 271 274 278 281 281 287 290 284 282 279 271 267 266
277 274 274 273 276 276 271 265 249 239 241 244 238 241 238 237 237 240 240 249 248 244 247 245 244 250 260 261 273 279 281 282 285 278 278 287 283 292 300 301 302 302 291
266 264 263 268 271 269 262 254 239 229 230 229 235 229 226 228 223 230 241 242 246 249 249 257 256 260 262 271 277 280 285 285 281 280 286 274 274 312 322 322 319 305 307
257 257 264 267 264 260 255 245 233 221 224 219 217 224 226 230 229 225 229 233 239 248 255 256 257 258 262 269 272 276 279 283 280 264 232 189 194 326 315 314 303 302 307
249 250 254 256 256 256 245 231 206 200 206 213 221 223 231 233 238 236 236 244 251 251 260 264 261 264 269 276 276 273 274 267 255 242 259 309 320 341 322 325 307 349 1
246 239 242 247 252 243 230 218 211 216 218 217 220 231 234 235 239 250 251 254 252 250 249 255 257 260 264 265 267 260 253 243 240 274 209 331 329 356 346 165 302 293 298